Location: Rumah Long Bangan
(2.8362°N, 113.7519°E)
Time: 05:35:25
(UTC+00:00)

Cosmos 1867 - Pass Details

Date: 24 October 2021
Orbit: 773 x 803 km, 65.0° (Epoch: 28 November)

Event Time Altitude Azimuth Distance (km) Brightness Sun altitude
Rises 20:33:49 0° 200° (SSW) 3,256 6.7 -23.9°
Reaches altitude 10° 20:36:13 10° 200° (SSW) 2,330 5.9 -23.3°
Maximum altitude 20:41:35 84° 111° (ESE) 791 3.5 -22.0°
Drops below altitude 10° 20:46:58 10° 23° (NNE) 2,344 6.1 -20.7°
Sets 20:49:23 0° 23° (NNE) 3,276 6.9 -20.1°
